THORAD AGENA D DEB, 42517

Orbit data source: Space-Track

THORAD AGENA D DEB, 42517 is space debris in SSO originally from a launch on Wed, 08 Apr 1970 UTC launched from the Air Force Western Test Range (AFWTR). Debris objects in space refer to the collection of defunct objects orbiting the Earth. Examples of debris include non-operational satellites, rocket bodies, and fragments generated from explosions, collisions, or faulty payload assembly.

Loading next visibility...
Identifier
42517, 1970-025RX
Orbit
SSO
Country
Flag of USUS
Related business
Manufacturer
Unknown
Mission
Spacecraft
Bus & Motor
Unknown
Mass
Unknown
Launch date (UTC)
1970-04-08 (56 years ago)
Launch vehicle
Unknown
Launch site
Air Force Western Test Range (AFWTR)
Object type
Payload
Rocket body
Debris
Shape & HBR
Unknown shape, 0.1 m
Radar Cross Section
Small (<0.1 m²)

Expand to show TLE details & history
Last TLE update: 11 hours ago

TLE from 11 hours ago
0 THORAD AGENA D DEB
1 42517U 70025RX  26037.34600514  .00000491  00000-0  92812-3 0  9993
2 42517 100.2449  89.6439 0090527  73.9381 287.1693 13.42370567599146
Epoch: 2026-02-06T08:18Z
TLE epoch observation values (Epoch: 2026-02-06T08:18:14.844Z)
Latitude
-0.00001°
Longitude
-171.40315°
Altitude
1,083.791 km
Speed
7.32 km/s
True Right ascension
05h 58m 34s
True Declination
0° 00' 00"
Sunlit
Object was in full shadow at epoch
Visualization orbit readout
Latitude
Unknown
Longitude
Unknown
Altitude
Unknown
Speed
Unknown
Apparent Right ascension
Unknown
Apparent Declination
Unknown
Sunlit
N/A
Visualization observer readout
Local Sidereal Time
21:04:17
Azimuth
Unknown
Elevation
Unknown
Doppler factor
Unknown
Orbital elements
Apogee altitude
1,165.479 km
Perigee altitude
1,030.124 km
Semi-major axis
7,475.939 km
Eccentricity
0.00905
Inclination
100.2449°
RAAN
89.6439°
Arg. of periapsis
73.9381°
True anomaly
286.17489°
Mean anomaly
287.1693°
Eccentric anomaly
286.67242°
Mean motion
3.35772 °/min
Orbital period
107.22 mins
BSTAR
0.00092812
Loading maneuver chart data...
Computing Atmospheric mass density...

Documentation

Showing up to 5 results
|